,,Stat6,,Stat2,,Stat8,,Stat9,,Stat10,,Wind1,,Wind1,
time,status,PA1M_AVG,status,PR1M_SUM,status,RH1M_AVG,status,SR1M_AVG,status,TA1M_AVG,status,W1dAve1m,status,W1sAve1m,
2008-02-28, 00:00:00,VALID,918.849,VALID,0,VALID,100,VALID,-0.0169808,VALID,19.5036,VALID,94,VALID,0,
2008-02-28, 00:01:00,VALID,918.844,VALID,0,VALID,100,VALID,-0.0339617,VALID,19.5136,VALID,97,VALID,0,
2008-02-28, 00:02:00,VALID,918.826,VALID,0,VALID,100,VALID,-0.0169808,VALID,19.5229,VALID,119,VALID,0,
2008-02-28, 00:03:00,VALID,918.802,VALID,0,VALID,100,VALID,-0.0849042,VALID,19.5366,VALID,124,VALID,0.642299,
2008-02-28, 00:04:00,VALID,918.796,VALID,0,VALID,100,VALID,-0.0339617,VALID,19.5264,VALID,127,VALID,0.321615,
2008-02-28, 00:05:00,VALID,918.792,VALID,0,VALID,100,VALID,-0.0339617,VALID,19.5356,VALID,130,VALID,0,
2008-02-28, 00:06:00,VALID,918.774,VALID,0,VALID,100,VALID,-0.0849042,VALID,19.5493,VALID,139,VALID,0.342988,
2008-02-28, 00:07:00,VALID,918.766,VALID,0,VALID,100,VALID,-0.0509425,VALID,19.5586,VALID,152,VALID,0.275391,
2008-02-28, 00:08:00,VALID,918.745,VALID,0,VALID,100,VALID,-0.0679233,VALID,19.5456,VALID,155,VALID,0.459077,
2008-02-28, 00:09:00,VALID,918.711,VALID,0,VALID,100,VALID,-0.0339617,VALID,19.5391,VALID,159,VALID,0.00390625,
2008-02-28, 00:10:00,VALID,918.69,VALID,0,VALID,100,VALID,0,VALID,19.5229,VALID,161,VALID,0.769985,
2008-02-28, 00:11:00,VALID,918.668,VALID,0,VALID,100,VALID,-0.0509425,VALID,19.5131,VALID,164,VALID,0.595567,
2008-02-28, 00:12:00,VALID,918.636,VALID,0,VALID,100,VALID,-0.0509425,VALID,19.4939,VALID,162,VALID,0.532774,
2008-02-28, 00:13:00,VALID,918.612,VALID,0,VALID,100,VALID,-0.0339617,VALID,19.4874,VALID,160,VALID,0.00236192,
2008-02-28, 00:14:00,VALID,918.576,VALID,0,VALID,100,VALID,-0.0169808,VALID,19.4872,VALID,160,VALID,0,
2008-02-28, 00:15:00,VALID,918.56,VALID,0,VALID,100,VALID,-0.0169808,VALID,19.4777,VALID,160,VALID,0,
2008-02-28, 00:16:00,VALID,918.538,VALID,0,VALID,100,VALID,-0.0679233,VALID,19.4747,VALID,160,VALID,0,
2008-02-28, 00:17:00,VALID,918.524,VALID,0,VALID,100,VALID,-0.0679233,VALID,19.468,VALID,160,VALID,0,
2008-02-28, 00:18:00,VALID,918.506,VALID,0,VALID,100,VALID,-0.0849042,VALID,19.4545,VALID,160,VALID,0,
2008-02-28, 00:19:00,VALID,918.493,VALID,0,VALID,100,VALID,-0.0339617,VALID,19.4385,VALID,160,VALID,0,
2008-02-28, 00:20:00,VALID,918.476,VALID,0,VALID,100,VALID,-0.0169808,VALID,19.429,VALID,160,VALID,0,
2008-02-28, 00:21:00,VALID,918.462,VALID,0,VALID,100,VALID,-0.0509425,VALID,19.4288,VALID,160,VALID,0,
2008-02-28, 00:22:00,VALID,918.442,VALID,0,VALID,100,VALID,-0.0169808,VALID,19.4223,VALID,160,VALID,0,
2008-02-28, 00:23:00,VALID,918.432,VALID,0,VALID,100,VALID,-0.0339617,VALID,19.4126,VALID,160,VALID,0,
2008-02-28, 00:24:00,VALID,918.425,VALID,0,VALID,100,VALID,-0.0509425,VALID,19.4158,VALID,140,VALID,0,
2008-02-28, 00:25:00,VALID,918.398,VALID,0,VALID,100,VALID,0,VALID,19.4223,VALID,139,VALID,0,
2008-02-28, 00:26:00,VALID,918.377,VALID,0,VALID,100,VALID,-0.0169808,VALID,19.4153,VALID,144,VALID,0,
2008-02-28, 00:27:00,VALID,918.342,VALID,0,VALID,100,VALID,-0.0339617,VALID,19.4158,VALID,148,VALID,0,
2008-02-28, 00:28:00,VALID,918.322,VALID,0,VALID,100,VALID,-0.0509425,VALID,19.4193,VALID,147,VALID,0,
2008-02-28, 00:29:00,VALID,918.312,VALID,0,VALID,100,VALID,-0.118866,VALID,19.4138,VALID,146,VALID,0,
2008-02-28, 00:30:00,VALID,918.286,VALID,0,VALID,100,VALID,-0.135847,VALID,19.4073,VALID,145,VALID,0,
2008-02-28, 00:31:00,VALID,918.284,VALID,0,VALID,100,VALID,-0.101885,VALID,19.4138,VALID,145,VALID,0,
2008-02-28, 00:32:00,VALID,918.264,VALID,0,VALID,100,VALID,-0.101885,VALID,19.4071,VALID,145,VALID,0,
2008-02-28, 00:33:00,VALID,918.252,VALID,0,VALID,100,VALID,-0.101885,VALID,19.3973,VALID,145,VALID,0,
2008-02-28, 00:34:00,VALID,918.247,VALID,0,VALID,100,VALID,-0.118866,VALID,19.4006,VALID,145,VALID,0,
2008-02-28, 00:35:00,VALID,918.229,VALID,0,VALID,100,VALID,-0.118866,VALID,19.4073,VALID,145,VALID,0,
2008-02-28, 00:36:00,VALID,918.229,VALID,0,VALID,100,VALID,-0.101885,VALID,19.4036,VALID,145,VALID,0,
2008-02-28, 00:37:00,VALID,918.217,VALID,0,VALID,100,VALID,-0.135847,VALID,19.4233,VALID,145,VALID,0,
2008-02-28, 00:38:00,VALID,918.224,VALID,0,VALID,100,VALID,-0.0849042,VALID,19.4068,VALID,145,VALID,0,
2008-02-28, 00:39:00,VALID,918.219,VALID,0,VALID,100,VALID,-0.101885,VALID,19.4138,VALID,145,VALID,0,
2008-02-28, 00:40:00,VALID,918.218,VALID,0,VALID,100,VALID,-0.118866,VALID,19.3911,VALID,130,VALID,0,
2008-02-28, 00:41:00,VALID,918.207,VALID,0,VALID,100,VALID,-0.118866,VALID,19.3811,VALID,124,VALID,0,
2008-02-28, 00:42:00,VALID,918.194,VALID,0,VALID,100,VALID,-0.152827,VALID,19.3684,VALID,118,VALID,0,
2008-02-28, 00:43:00,VALID,918.188,VALID,0,VALID,100,VALID,-0.0509425,VALID,19.3669,VALID,106,VALID,0,
2008-02-28, 00:44:00,VALID,918.189,VALID,0,VALID,100,VALID,0,VALID,19.3602,VALID,106,VALID,0,
2008-02-28, 00:45:00,VALID,918.185,VALID,0,VALID,100,VALID,0,VALID,19.3467,VALID,106,VALID,0,
2008-02-28, 00:46:00,VALID,918.179,VALID,0,VALID,100,VALID,0.0169808,VALID,19.3437,VALID,106,VALID,0,
2008-02-28, 00:47:00,VALID,918.17,VALID,0,VALID,100,VALID,0,VALID,19.3375,VALID,109,VALID,0,
2008-02-28, 00:48:00,VALID,918.158,VALID,0,VALID,100,VALID,-0.0339617,VALID,19.3444,VALID,108,VALID,0,
2008-02-28, 00:49:00,VALID,918.159,VALID,0,VALID,100,VALID,0,VALID,19.3312,VALID,108,VALID,0,
2008-02-28, 00:50:00,VALID,918.154,VALID,0,VALID,100,VALID,-0.0169808,VALID,19.3217,VALID,107,VALID,0,
2008-02-28, 00:51:00,VALID,918.141,VALID,0,VALID,100,VALID,-0.0169808,VALID,19.3182,VALID,104,VALID,0,
2008-02-28, 00:52:00,VALID,918.13,VALID,0,VALID,100,VALID,-0.0169808,VALID,19.3215,VALID,104,VALID,0,
2008-02-28, 00:53:00,VALID,918.123,VALID,0,VALID,100,VALID,-0.0509425,VALID,19.318,VALID,104,VALID,0,
2008-02-28, 00:54:00,VALID,918.099,VALID,0,VALID,100,VALID,-0.0169808,VALID,19.3215,VALID,104,VALID,0,
2008-02-28, 00:55:00,VALID,918.075,VALID,0,VALID,100,VALID,-0.0169808,VALID,19.3215,VALID,111,VALID,0,
2008-02-28, 00:56:00,VALID,918.061,VALID,0,VALID,100,VALID,-0.0169808,VALID,19.328,VALID,151,VALID,0,
2008-02-28, 00:57:00,VALID,918.042,VALID,0,VALID,100,VALID,-0.0679233,VALID,19.328,VALID,156,VALID,0,
2008-02-28, 00:58:00,VALID,918.034,VALID,0,VALID,100,VALID,-0.0169808,VALID,19.331,VALID,153,VALID,0,
2008-02-28, 00:59:00,VALID,918.009,VALID,0,VALID,100,VALID,-0.0509425,VALID,19.328,VALID,147,VALID,0,
2008-02-28, 01:00:00,VALID,918.016,VALID,0,VALID,100,VALID,-0.0169808,VALID,19.3312,VALID,144,VALID,0,
2008-02-28, 01:01:00,VALID,918.002,VALID,0,VALID,100,VALID,-0.0169808,VALID,19.3345,VALID,144,VALID,0,
2008-02-28, 01:02:00,VALID,918.015,VALID,0,VALID,100,VALID,-0.0509425,VALID,19.3382,VALID,146,VALID,0,
2008-02-28, 01:03:00,VALID,918,VALID,0,VALID,100,VALID,-0.0509425,VALID,19.3377,VALID,147,VALID,0,
2008-02-28, 01:04:00,VALID,917.983,VALID,0,VALID,100,VALID,0,VALID,19.3312,VALID,150,VALID,0,
2008-02-28, 01:05:00,VALID,917.974,VALID,0,VALID,100,VALID,-0.0339617,VALID,19.3345,VALID,154,VALID,0,
2008-02-28, 01:06:00,VALID,917.963,VALID,0,VALID,100,VALID,-0.0339617,VALID,19.328,VALID,155,VALID,0,
2008-02-28, 01:07:00,VALID,917.967,VALID,0,VALID,100,VALID,-0.0339617,VALID,19.328,VALID,160,VALID,0,
2008-02-28, 01:08:00,VALID,917.948,VALID,0,VALID,100,VALID,-0.0169808,VALID,19.318,VALID,163,VALID,0,
2008-02-28, 01:09:00,VALID,917.955,VALID,0,VALID,100,VALID,-0.0169808,VALID,19.3247,VALID,169,VALID,0,
2008-02-28, 01:10:00,VALID,917.946,VALID,0,VALID,100,VALID,0,VALID,19.3118,VALID,169,VALID,0,
2008-02-28, 01:11:00,VALID,917.952,VALID,0,VALID,100,VALID,0,VALID,19.3217,VALID,169,VALID,0,
2008-02-28, 01:12:00,VALID,917.937,VALID,0,VALID,100,VALID,-0.0509425,VALID,19.3155,VALID,158,VALID,0,
2008-02-28, 01:13:00,VALID,917.922,VALID,0,VALID,100,VALID,-0.0509425,VALID,19.3152,VALID,161,VALID,0,
2008-02-28, 01:14:00,VALID,917.909,VALID,0,VALID,100,VALID,0,VALID,19.3217,VALID,158,VALID,0,
2008-02-28, 01:15:00,VALID,917.886,VALID,0,VALID,100,VALID,-0.0169808,VALID,19.3113,VALID,157,VALID,0,
2008-02-28, 01:16:00,VALID,917.858,VALID,0,VALID,100,VALID,-0.0339617,VALID,19.3377,VALID,156,VALID,0,
2008-02-28, 01:17:00,VALID,917.848,VALID,0,VALID,100,VALID,-0.0169808,VALID,19.338,VALID,156,VALID,0,
2008-02-28, 01:18:00,VALID,917.825,VALID,0,VALID,100,VALID,-0.0339617,VALID,19.341,VALID,156,VALID,0,
2008-02-28, 01:19:00,VALID,917.816,VALID,0,VALID,100,VALID,-0.0509425,VALID,19.3375,VALID,156,VALID,0,
2008-02-28, 01:20:00,VALID,917.809,VALID,0,VALID,100,VALID,-0.0169808,VALID,19.341,VALID,156,VALID,0,
2008-02-28, 01:21:00,VALID,917.799,VALID,0,VALID,100,VALID,0,VALID,19.3474,VALID,156,VALID,0,
2008-02-28, 01:22:00,VALID,917.796,VALID,0,VALID,100,VALID,-0.0339617,VALID,19.3567,VALID,156,VALID,0,
2008-02-28, 01:23:00,VALID,917.784,VALID,0,VALID,100,VALID,-0.0339617,VALID,19.3704,VALID,156,VALID,0,
2008-02-28, 01:24:00,VALID,917.766,VALID,0,VALID,100,VALID,-0.0339617,VALID,19.3669,VALID,156,VALID,0,
2008-02-28, 01:25:00,VALID,917.758,VALID,0,VALID,100,VALID,0,VALID,19.3769,VALID,156,VALID,0,
2008-02-28, 01:26:00,VALID,917.753,VALID,0,VALID,100,VALID,0,VALID,19.3796,VALID,156,VALID,0,
2008-02-28, 01:27:00,VALID,917.756,VALID,0,VALID,100,VALID,0,VALID,19.3727,VALID,156,VALID,0,
2008-02-28, 01:28:00,VALID,917.731,VALID,0,VALID,100,VALID,-0.0169808,VALID,19.3864,VALID,156,VALID,0,
2008-02-28, 01:29:00,VALID,917.724,VALID,0,VALID,100,VALID,0,VALID,19.3931,VALID,156,VALID,0,
2008-02-28, 01:30:00,VALID,917.705,VALID,0,VALID,100,VALID,0,VALID,19.3929,VALID,146,VALID,0,
2008-02-28, 01:31:00,VALID,917.687,VALID,0,VALID,100,VALID,0,VALID,19.3993,VALID,144,VALID,0,
2008-02-28, 01:32:00,VALID,917.669,VALID,0,VALID,100,VALID,-0.0339617,VALID,19.4091,VALID,144,VALID,0,
2008-02-28, 01:33:00,VALID,917.667,VALID,0,VALID,100,VALID,0,VALID,19.4121,VALID,144,VALID,0,
2008-02-28, 01:34:00,VALID,917.642,VALID,0,VALID,100,VALID,-0.0169808,VALID,19.4156,VALID,144,VALID,0,
2008-02-28, 01:35:00,VALID,917.632,VALID,0,VALID,100,VALID,-0.0339617,VALID,19.4251,VALID,144,VALID,0,
2008-02-28, 01:36:00,VALID,917.613,VALID,0,VALID,100,VALID,0,VALID,19.4345,VALID,144,VALID,0,
2008-02-28, 01:37:00,VALID,917.591,VALID,0,VALID,100,VALID,-0.0169808,VALID,19.4448,VALID,144,VALID,0,
2008-02-28, 01:38:00,VALID,917.585,VALID,0,VALID,100,VALID,-0.0339617,VALID,19.4415,VALID,144,VALID,0,
2008-02-28, 01:39:00,VALID,917.566,VALID,0,VALID,100,VALID,-0.0169808,VALID,19.435,VALID,144,VALID,0,
2008-02-28, 01:40:00,VALID,917.552,VALID,0,VALID,100,VALID,-0.0339617,VALID,19.4283,VALID,144,VALID,0,
2008-02-28, 01:41:00,VALID,917.541,VALID,0,VALID,100,VALID,-0.0339617,VALID,19.4318,VALID,144,VALID,0,
2008-02-28, 01:42:00,VALID,917.52,VALID,0,VALID,100,VALID,0,VALID,19.4218,VALID,144,VALID,0,
2008-02-28, 01:43:00,VALID,917.508,VALID,0,VALID,100,VALID,-0.0169808,VALID,19.4253,VALID,141,VALID,0,
2008-02-28, 01:44:00,VALID,917.474,VALID,0,VALID,100,VALID,-0.0169808,VALID,19.4253,VALID,136,VALID,0,
2008-02-28, 01:45:00,VALID,917.448,VALID,0,VALID,100,VALID,-0.0339617,VALID,19.4253,VALID,136,VALID,0,
2008-02-28, 01:46:00,VALID,917.43,VALID,0,VALID,100,VALID,-0.0169808,VALID,19.4186,VALID,134,VALID,0,
2008-02-28, 01:47:00,VALID,917.413,VALID,0,VALID,100,VALID,-0.0169808,VALID,19.4288,VALID,125,VALID,0,
2008-02-28, 01:48:00,VALID,917.394,VALID,0,VALID,100,VALID,-0.0169808,VALID,19.4118,VALID,122,VALID,0,
2008-02-28, 01:49:00,VALID,917.38,VALID,0,VALID,100,VALID,-0.0339617,VALID,19.4088,VALID,122,VALID,0,
2008-02-28, 01:50:00,VALID,917.349,VALID,0,VALID,100,VALID,0,VALID,19.4091,VALID,122,VALID,0,
2008-02-28, 01:51:00,VALID,917.336,VALID,0,VALID,100,VALID,-0.0169808,VALID,19.3993,VALID,121,VALID,0,
2008-02-28, 01:52:00,VALID,917.331,VALID,0,VALID,100,VALID,-0.0509425,VALID,19.3896,VALID,121,VALID,0,
2008-02-28, 01:53:00,VALID,917.305,VALID,0,VALID,100,VALID,-0.0339617,VALID,19.3961,VALID,122,VALID,0.217478,
2008-02-28, 01:54:00,VALID,917.288,VALID,0,VALID,100,VALID,-0.0339617,VALID,19.3896,VALID,124,VALID,0.510472,
2008-02-28, 01:55:00,VALID,917.27,VALID,0,VALID,100,VALID,-0.0339617,VALID,19.3899,VALID,132,VALID,0.0997456,
2008-02-28, 01:56:00,VALID,917.251,VALID,0,VALID,100,VALID,-0.0339617,VALID,19.3931,VALID,135,VALID,0,
2008-02-28, 01:57:00,VALID,917.232,VALID,0,VALID,100,VALID,-0.0509425,VALID,19.3864,VALID,136,VALID,0,
2008-02-28, 01:58:00,VALID,917.215,VALID,0,VALID,100,VALID,0.0679233,VALID,19.3851,VALID,137,VALID,0,
2008-02-28, 01:59:00,VALID,917.197,VALID,0,VALID,100,VALID,0.0679233,VALID,19.3851,VALID,145,VALID,0.232195,
2008-02-28, 02:00:00,VALID,917.176,VALID,0,VALID,100,VALID,0.0679233,VALID,19.3754,VALID,158,VALID,0,
2008-02-28, 02:01:00,VALID,917.178,VALID,0,VALID,100,VALID,0.0509425,VALID,19.3654,VALID,158,VALID,0,
2008-02-28, 02:02:00,VALID,917.164,VALID,0,VALID,100,VALID,0.101885,VALID,19.3592,VALID,161,VALID,0,
2008-02-28, 02:03:00,VALID,917.154,VALID,0,VALID,100,VALID,0.0509425,VALID,19.3362,VALID,144,VALID,0,
2008-02-28, 02:04:00,VALID,917.158,VALID,0,VALID,100,VALID,0.0509425,VALID,19.3298,VALID,140,VALID,0.173264,
2008-02-28, 02:05:00,VALID,917.149,VALID,0,VALID,100,VALID,0.101885,VALID,19.3165,VALID,154,VALID,0,
2008-02-28, 02:06:00,VALID,917.134,VALID,0,VALID,100,VALID,0.0679233,VALID,19.3038,VALID,173,VALID,0,
2008-02-28, 02:07:00,VALID,917.117,VALID,0,VALID,100,VALID,0.0849042,VALID,19.2973,VALID,166,VALID,0.302973,
2008-02-28, 02:08:00,VALID,917.12,VALID,0,VALID,100,VALID,0.0849042,VALID,19.2843,VALID,157,VALID,0.0658482,
2008-02-28, 02:09:00,VALID,917.119,VALID,0,VALID,100,VALID,0.0849042,VALID,19.2746,VALID,144,VALID,0.00121528,
2008-02-28, 02:10:00,VALID,917.107,VALID,0,VALID,100,VALID,0.0509425,VALID,19.2681,VALID,121,VALID,0,
2008-02-28, 02:11:00,VALID,917.096,VALID,0,VALID,100,VALID,0.0339617,VALID,19.2551,VALID,138,VALID,0,
2008-02-28, 02:12:00,VALID,917.082,VALID,0,VALID,100,VALID,0.101885,VALID,19.2519,VALID,140,VALID,0,
2008-02-28, 02:13:00,VALID,917.07,VALID,0,VALID,100,VALID,-0.0339617,VALID,19.2509,VALID,133,VALID,0,
2008-02-28, 02:14:00,VALID,917.047,VALID,0,VALID,100,VALID,-0.0339617,VALID,19.2536,VALID,120,VALID,0,
2008-02-28, 02:15:00,VALID,917.045,VALID,0,VALID,100,VALID,-0.0339617,VALID,19.2404,VALID,135,VALID,0,
2008-02-28, 02:16:00,VALID,917.015,VALID,0,VALID,100,VALID,-0.0679233,VALID,19.2576,VALID,135,VALID,0,
2008-02-28, 02:17:00,VALID,917.003,VALID,0,VALID,100,VALID,-0.0509425,VALID,19.2571,VALID,131,VALID,0,
2008-02-28, 02:18:00,VALID,917,VALID,0,VALID,100,VALID,-0.0679233,VALID,19.2541,VALID,129,VALID,0,
2008-02-28, 02:19:00,VALID,916.989,VALID,0,VALID,100,VALID,-0.0679233,VALID,19.2571,VALID,129,VALID,0,
2008-02-28, 02:20:00,VALID,916.982,VALID,0,VALID,100,VALID,-0.0339617,VALID,19.2606,VALID,129,VALID,0,
2008-02-28, 02:21:00,VALID,916.957,VALID,0,VALID,100,VALID,-0.0849042,VALID,19.2504,VALID,129,VALID,0,
2008-02-28, 02:22:00,VALID,916.953,VALID,0,VALID,100,VALID,-0.0679233,VALID,19.2539,VALID,129,VALID,0,
2008-02-28, 02:23:00,VALID,916.951,VALID,0,VALID,100,VALID,-0.0679233,VALID,19.2573,VALID,129,VALID,0,
2008-02-28, 02:24:00,VALID,916.93,VALID,0,VALID,100,VALID,-0.0509425,VALID,19.2603,VALID,132,VALID,0,
2008-02-28, 02:25:00,VALID,916.924,VALID,0,VALID,100,VALID,-0.0509425,VALID,19.2641,VALID,135,VALID,0,
2008-02-28, 02:26:00,VALID,916.905,VALID,0,VALID,100,VALID,-0.0849042,VALID,19.2536,VALID,133,VALID,0,
2008-02-28, 02:27:00,VALID,916.888,VALID,0,VALID,100,VALID,-0.0509425,VALID,19.2309,VALID,133,VALID,0,
2008-02-28, 02:28:00,VALID,916.883,VALID,0,VALID,100,VALID,0.0679233,VALID,19.2294,VALID,133,VALID,0,
2008-02-28, 02:29:00,VALID,916.872,VALID,0,VALID,100,VALID,0.101885,VALID,19.2097,VALID,133,VALID,0,
2008-02-28, 02:30:00,VALID,916.85,VALID,0,VALID,100,VALID,0.0339617,VALID,19.207,VALID,133,VALID,0,
2008-02-28, 02:31:00,VALID,916.843,VALID,0,VALID,100,VALID,0.0679233,VALID,19.207,VALID,133,VALID,0,
2008-02-28, 02:32:00,VALID,916.841,VALID,0,VALID,100,VALID,0.0849042,VALID,19.2007,VALID,137,VALID,0,
2008-02-28, 02:33:00,VALID,916.822,VALID,0,VALID,100,VALID,0.0169808,VALID,19.1938,VALID,140,VALID,0,
2008-02-28, 02:34:00,VALID,916.818,VALID,0,VALID,100,VALID,0.0849042,VALID,19.1873,VALID,140,VALID,0,
2008-02-28, 02:35:00,VALID,916.795,VALID,0,VALID,100,VALID,0.0679233,VALID,19.1775,VALID,140,VALID,0,
2008-02-28, 02:36:00,VALID,916.783,VALID,0,VALID,100,VALID,0.0509425,VALID,19.1741,VALID,140,VALID,0,
2008-02-28, 02:37:00,VALID,916.785,VALID,0,VALID,100,VALID,0.0849042,VALID,19.1643,VALID,140,VALID,0,
2008-02-28, 02:38:00,VALID,916.774,VALID,0,VALID,100,VALID,0.0679233,VALID,19.1514,VALID,142,VALID,0,
2008-02-28, 02:39:00,VALID,916.768,VALID,0,VALID,100,VALID,0.0849042,VALID,19.1321,VALID,149,VALID,0,
2008-02-28, 02:40:00,VALID,916.756,VALID,0,VALID,100,VALID,0.0849042,VALID,19.1122,VALID,151,VALID,0,
2008-02-28, 02:41:00,VALID,916.75,VALID,0,VALID,100,VALID,0.0849042,VALID,19.0962,VALID,151,VALID,0,
2008-02-28, 02:42:00,VALID,916.747,VALID,0,VALID,100,VALID,0.0849042,VALID,19.093,VALID,155,VALID,0,
2008-02-28, 02:43:00,VALID,916.74,VALID,0,VALID,100,VALID,0.101885,VALID,19.083,VALID,146,VALID,0,
2008-02-28, 02:44:00,VALID,916.727,VALID,0,VALID,100,VALID,0.0849042,VALID,19.0768,VALID,147,VALID,0,
2008-02-28, 02:45:00,VALID,916.723,VALID,0,VALID,100,VALID,0.0679233,VALID,19.0865,VALID,146,VALID,0,
2008-02-28, 02:46:00,VALID,916.715,VALID,0,VALID,100,VALID,0.0849042,VALID,19.0837,VALID,146,VALID,0,
2008-02-28, 02:47:00,VALID,916.709,VALID,0,VALID,100,VALID,0.101885,VALID,19.0798,VALID,152,VALID,0,
2008-02-28, 02:48:00,VALID,916.702,VALID,0,VALID,100,VALID,0.0849042,VALID,19.0867,VALID,156,VALID,0,
2008-02-28, 02:49:00,VALID,916.721,VALID,0,VALID,100,VALID,0.0339617,VALID,19.0705,VALID,156,VALID,0,
2008-02-28, 02:50:00,VALID,916.711,VALID,0,VALID,100,VALID,0.0849042,VALID,19.0605,VALID,156,VALID,0,
2008-02-28, 02:51:00,VALID,916.721,VALID,0,VALID,100,VALID,0.0509425,VALID,19.07,VALID,156,VALID,0,
2008-02-28, 02:52:00,VALID,916.715,VALID,0,VALID,100,VALID,0.0679233,VALID,19.0733,VALID,156,VALID,0,
2008-02-28, 02:53:00,VALID,916.729,VALID,0,VALID,100,VALID,0.101885,VALID,19.0768,VALID,156,VALID,0,
2008-02-28, 02:54:00,VALID,916.73,VALID,0,VALID,100,VALID,0.0849042,VALID,19.08,VALID,156,VALID,0,
2008-02-28, 02:55:00,VALID,916.73,VALID,0,VALID,100,VALID,0.0509425,VALID,19.0802,VALID,156,VALID,0,
2008-02-28, 02:56:00,VALID,916.74,VALID,0,VALID,100,VALID,0.0509425,VALID,19.0638,VALID,156,VALID,0,
2008-02-28, 02:57:00,VALID,916.751,VALID,0,VALID,100,VALID,0.101885,VALID,19.0638,VALID,156,VALID,0,
2008-02-28, 02:58:00,VALID,916.758,VALID,0,VALID,100,VALID,0.0509425,VALID,19.0543,VALID,156,VALID,0,
2008-02-28, 02:59:00,VALID,916.767,VALID,0,VALID,100,VALID,0.101885,VALID,19.0313,VALID,156,VALID,0,
2008-02-28, 03:00:00,VALID,916.782,VALID,0,VALID,100,VALID,0.0849042,VALID,19.0184,VALID,156,VALID,0,
2008-02-28, 03:01:00,VALID,916.791,VALID,0,VALID,100,VALID,0.101885,VALID,18.9857,VALID,156,VALID,0,
2008-02-28, 03:02:00,VALID,916.81,VALID,0,VALID,100,VALID,0.0849042,VALID,18.96,VALID,156,VALID,0,
2008-02-28, 03:03:00,VALID,916.818,VALID,0,VALID,100,VALID,0.0339617,VALID,18.9208,VALID,156,VALID,0,
2008-02-28, 03:04:00,VALID,916.826,VALID,0,VALID,100,VALID,0.101885,VALID,18.9081,VALID,156,VALID,0,
2008-02-28, 03:05:00,VALID,916.829,VALID,0,VALID,100,VALID,0.0509425,VALID,18.9018,VALID,156,VALID,0,
2008-02-28, 03:06:00,VALID,916.848,VALID,0,VALID,100,VALID,0.0509425,VALID,18.9049,VALID,156,VALID,0,
2008-02-28, 03:07:00,VALID,916.847,VALID,0,VALID,100,VALID,0.0679233,VALID,18.8754,VALID,156,VALID,0,
2008-02-28, 03:08:00,VALID,916.863,VALID,0,VALID,100,VALID,0.0509425,VALID,18.8694,VALID,156,VALID,0,
2008-02-28, 03:09:00,VALID,916.878,VALID,0,VALID,100,VALID,0.0339617,VALID,18.8303,VALID,156,VALID,0,
2008-02-28, 03:10:00,VALID,916.876,VALID,0,VALID,100,VALID,0.101885,VALID,18.8205,VALID,156,VALID,0,
2008-02-28, 03:11:00,VALID,916.881,VALID,0,VALID,100,VALID,0.0849042,VALID,18.8043,VALID,156,VALID,0,
2008-02-28, 03:12:00,VALID,916.909,VALID,0,VALID,100,VALID,0.0849042,VALID,18.7943,VALID,156,VALID,0,
2008-02-28, 03:13:00,VALID,916.911,VALID,0,VALID,100,VALID,-0.0339617,VALID,18.7826,VALID,156,VALID,0,
2008-02-28, 03:14:00,VALID,916.915,VALID,0,VALID,100,VALID,-0.0509425,VALID,18.7668,VALID,156,VALID,0,
2008-02-28, 03:15:00,VALID,916.917,VALID,0,VALID,100,VALID,-0.0509425,VALID,18.7149,VALID,156,VALID,0,
2008-02-28, 03:16:00,VALID,916.933,VALID,0,VALID,100,VALID,-0.0509425,VALID,18.6987,VALID,156,VALID,0,
2008-02-28, 03:17:00,VALID,916.944,VALID,0,VALID,100,VALID,-0.0509425,VALID,18.695,VALID,156,VALID,0,
2008-02-28, 03:18:00,VALID,916.944,VALID,0,VALID,100,VALID,-0.0509425,VALID,18.7052,VALID,156,VALID,0,
2008-02-28, 03:19:00,VALID,916.961,VALID,0,VALID,100,VALID,0,VALID,18.7149,VALID,156,VALID,0,
2008-02-28, 03:20:00,VALID,916.976,VALID,0,VALID,100,VALID,-0.0169808,VALID,18.7436,VALID,156,VALID,0,
2008-02-28, 03:21:00,VALID,916.98,VALID,0,VALID,100,VALID,-0.0339617,VALID,18.7663,VALID,156,VALID,0,
2008-02-28, 03:22:00,VALID,916.979,VALID,0,VALID,100,VALID,0,VALID,18.8187,VALID,156,VALID,0,
2008-02-28, 03:23:00,VALID,916.975,VALID,0,VALID,100,VALID,-0.0169808,VALID,18.8509,VALID,156,VALID,0,
2008-02-28, 03:24:00,VALID,916.954,VALID,0,VALID,100,VALID,-0.0509425,VALID,18.8539,VALID,156,VALID,0,
2008-02-28, 03:25:00,VALID,916.941,VALID,0,VALID,100,VALID,-0.0339617,VALID,18.8606,VALID,156,VALID,0,
2008-02-28, 03:26:00,VALID,916.934,VALID,0,VALID,100,VALID,-0.0509425,VALID,18.8414,VALID,156,VALID,0,
2008-02-28, 03:27:00,VALID,916.934,VALID,0,VALID,100,VALID,-0.0169808,VALID,18.8606,VALID,156,VALID,0,
2008-02-28, 03:28:00,VALID,916.93,VALID,0,VALID,100,VALID,-0.0339617,VALID,18.8931,VALID,156,VALID,0,
2008-02-28, 03:29:00,VALID,916.94,VALID,0,VALID,100,VALID,0,VALID,18.9225,VALID,156,VALID,0,
2008-02-28, 03:30:00,VALID,916.928,VALID,0,VALID,100,VALID,-0.0509425,VALID,18.9153,VALID,156,VALID,0,
2008-02-28, 03:31:00,VALID,916.95,VALID,0,VALID,100,VALID,-0.0509425,VALID,18.9355,VALID,156,VALID,0,
2008-02-28, 03:32:00,VALID,916.966,VALID,0,VALID,100,VALID,-0.0849042,VALID,18.9357,VALID,156,VALID,0,
2008-02-28, 03:33:00,VALID,916.97,VALID,0,VALID,100,VALID,-0.0679233,VALID,18.939,VALID,156,VALID,0,
2008-02-28, 03:34:00,VALID,916.974,VALID,0,VALID,100,VALID,-0.0679233,VALID,18.9102,VALID,156,VALID,0,
2008-02-28, 03:35:00,VALID,916.962,VALID,0,VALID,100,VALID,-0.0679233,VALID,18.8836,VALID,156,VALID,0,
2008-02-28, 03:36:00,VALID,916.966,VALID,0,VALID,100,VALID,-0.0679233,VALID,18.8866,VALID,111,VALID,0,
2008-02-28, 03:37:00,VALID,916.965,VALID,0,VALID,100,VALID,-0.0679233,VALID,18.9387,VALID,85,VALID,0,
2008-02-28, 03:38:00,VALID,916.958,VALID,0,VALID,100,VALID,-0.0509425,VALID,18.9512,VALID,85,VALID,0,
2008-02-28, 03:39:00,VALID,916.963,VALID,0,VALID,100,VALID,-0.0509425,VALID,18.9644,VALID,85,VALID,0,
2008-02-28, 03:40:00,VALID,916.962,VALID,0,VALID,100,VALID,-0.0339617,VALID,18.9742,VALID,85,VALID,0,
2008-02-28, 03:41:00,VALID,916.965,VALID,0,VALID,100,VALID,-0.0169808,VALID,18.9802,VALID,85,VALID,0,
2008-02-28, 03:42:00,VALID,916.968,VALID,0,VALID,100,VALID,-0.0339617,VALID,18.9871,VALID,85,VALID,0,
2008-02-28, 03:43:00,VALID,916.956,VALID,0,VALID,100,VALID,-0.0339617,VALID,19.0131,VALID,85,VALID,0,
2008-02-28, 03:44:00,VALID,916.945,VALID,0,VALID,100,VALID,-0.0339617,VALID,19.0228,VALID,85,VALID,0,
2008-02-28, 03:45:00,VALID,916.933,VALID,0,VALID,100,VALID,-0.0509425,VALID,19.0325,VALID,85,VALID,0,
2008-02-28, 03:46:00,VALID,916.93,VALID,0,VALID,100,VALID,-0.0169808,VALID,19.0652,VALID,85,VALID,0,
2008-02-28, 03:47:00,VALID,916.904,VALID,0,VALID,100,VALID,-0.0339617,VALID,19.0942,VALID,85,VALID,0,
2008-02-28, 03:48:00,VALID,916.889,VALID,0,VALID,100,VALID,-0.0169808,VALID,19.1169,VALID,85,VALID,0,
2008-02-28, 03:49:00,VALID,916.875,VALID,0,VALID,100,VALID,-0.0339617,VALID,19.1199,VALID,85,VALID,0,
2008-02-28, 03:50:00,VALID,916.885,VALID,0,VALID,100,VALID,-0.0169808,VALID,19.1194,VALID,85,VALID,0,